Regional Weather Roundup
Issued by NWS Tiyan, Guam

Home | Current Version | Previous Version | Text Only | Print | Product List | Glossary On
Versions: 1 2 3 4 5 6 7 8 9 10 11 12 13 14 15 16 17 18 19 20 21 22 23 24 25 26 27 28 29 30 31 32 33 34 35 36 37 38 39 40 41 42 43 44 45 46 47 48 49 50
000
ASGM40 PGUM 180312
RWRGUM
WEATHER ROUNDUP FOR THE MARIANAS
NATIONAL WEATHER SERVICE TIYAN GU
100 PM CHST WED OCT 18 2017

GUZ001>004-180400-
MARIANA ISLANDS-

CITY           SKY/WX    TMP DP  RH WIND       PRES   REMARKS
GUAM AIRPORT   PTSUNNY   79  79 100 S12G18    29.78S
ANDERSEN AFB   PTSUNNY   77  75  94 S21G30    29.77S
ROTA AIRPORT   LGT RAIN  77  75  94 S17G25    29.74F
TINIAN AP      RAIN      77  73  88 SW20G26   29.71F VSB 1
SAIPAN AP      RAIN      79  77  94 SW23G32   29.70F FOG

$$




USA.gov is the U.S. government's official web portal to all federal, state and local government web resources and services.